This is the latest recevied weather packets stored in our database for station/object PY1LEO-13. If no packets are shown the sender has not sent any weather packets the latest 10 day(s).
| Time | Temp. | Humidity | Pressure | Rain* | Wind** | Luminosity | Snow |
|---|---|---|---|---|---|---|---|
| 1778079716 | 28.89° C | 58% | 1020.2 hPa | - | - | - | - |
| 1778079416 | 29.44° C | 57% | 1020.3 hPa | - | - | - | - |
| 1778079116 | 28.89° C | 58% | 1020.4 hPa | - | - | - | - |
| 1778078816 | 30° C | 57% | 1020.5 hPa | - | - | - | - |
| 1778078516 | 29.44° C | 57% | 1020.5 hPa | - | - | - | - |
| 1778078216 | 30° C | 56% | 1020.6 hPa | - | - | - | - |
| 1778077916 | 28.89° C | 59% | 1020.7 hPa | - | - | - | - |
| 1778077616 | 29.44° C | 58% | 1020.6 hPa | - | - | - | - |
| 1778077316 | 29.44° C | 58% | 1020.7 hPa | - | - | - | - |
| 1778077016 | 30° C | 57% | 1020.7 hPa | - | - | - | - |
| 1778076716 | 29.44° C | 58% | 1020.9 hPa | - | - | - | - |
| 1778076416 | 30° C | 56% | 1020.9 hPa | - | - | - | - |
| 1778076116 | 29.44° C | 58% | 1021 hPa | - | - | - | - |
| 1778075816 | 30° C | 57% | 1021.1 hPa | - | - | - | - |
| 1778075516 | 30° C | 57% | 1021.1 hPa | - | - | - | - |
| 1778075166 | 30° C | 57% | 1021.1 hPa | - | - | - | - |
| 1778074867 | 28.89° C | 58% | 1021.3 hPa | - | - | - | - |
| 1778074569 | 28.89° C | 58% | 1021.4 hPa | - | - | - | - |
| 1778074266 | 29.44° C | 58% | 1021.4 hPa | - | - | - | - |
| 1778073666 | 28.89° C | 58% | 1021.6 hPa | - | - | - | - |
| 1778073366 | 28.33° C | 59% | 1021.6 hPa | - | - | - | - |
| 1778073066 | 28.89° C | 58% | 1021.6 hPa | - | - | - | - |
| 1778072467 | 28.33° C | 60% | 1021.7 hPa | - | - | - | - |
| 1778072166 | 28.89° C | 58% | 1021.8 hPa | - | - | - | - |
| 1778071866 | 28.33° C | 59% | 1021.8 hPa | - | - | - | - |
* Rain since midnight (hover to see other rain measurements)
** Current wind speed in m/s (hover to see current wind gust speed)